Terug naar catalogus

DELTA 1 DEB

ActiefLEO
NORAD 18906·DEBRIS·🇺🇸 United States

Gelanceerd Nov 6, 1973 vanaf Vandenberg Space Force Base

Loading…

Volgende Passages (komende 24 uur)

TLE

VersSource: Space-Track

Epoch: Sep 14, 2026, 15:31 UTC

1 18906U 73086HB  26257.64707463 -.00000052  00000-0 -19634-4 0  9993
2 18906 102.2395 139.3000 0088779 292.3136  96.3914 12.55923780783292

Volg DELTA 1 DEB in realtime met AllMySat

Download on the App Store